KD7DVD-1 Weather Reports


Display with metric or nautical units.
time (UTC)temp
F
wind
direction
speed
MPH
gust
MPH
rain 1hr
in
rain 24hr
in
rain mn
in
humidity
%
barometer
mb
20260903033017 55 0.0 0.0 0.00 0.20 0.20 92 1006.0
20260903030022 56 0.0 1.0 0.00 0.20 0.20 91 1005.8
20260903023022 57 0.0 1.0 0.00 0.20 0.20 89 1005.5
20260903020017 60 0.0 2.0 0.00 0.20 0.20 87 1005.2
20260903013022 60 0.0 4.0 0.01 0.20 0.20 89 1004.9
20260903010017 60 0.0 1.0 0.02 0.20 0.20 92 1004.4
20260903003017 60 0.0 5.0 0.01 0.19 0.19 92 1004.1
20260903000017 60 0.0 0.0 0.03 0.18 0.18 92 1003.9
20260902233022 60 0.0 0.0 0.08 0.18 0.18 91 1003.9
20260902230017 60 0.0 1.0 0.08 0.15 0.15 90 1004.4
20260902223016 60 0.0 1.0 0.07 0.10 0.10 89 1004.2
20260902220021 61 0.0 1.0 0.07 0.07 0.07 88 1004.3
20260902213016 62 0.0 1.0 0.03 0.03 0.03 85 1004.5
20260902210017 65 0.0 3.0 0.00 0.00 0.00 79 1004.2
20260902203021 66 0.0 1.0 0.00 0.00 0.00 80 1004.1
20260902200016 65 0.0 4.0 0.00 0.00 0.00 81 1004.4
20260902193021 69 0.0 4.0 0.00 0.00 0.00 64 1004.8
20260902190021 69 0.0 2.0 0.00 0.00 0.00 61 1004.4
20260902183024 66 0.0 1.0 0.00 0.00 0.00 67 1004.8
20260902180021 66 0.0 2.0 0.00 0.00 0.00 69 1005.2
20260902173021 66 0.0 1.0 0.00 0.00 0.00 69 1005.4
20260902170017 65 0.0 1.0 0.00 0.00 0.00 73 1005.6
20260902163015 65 0.0 1.0 0.00 0.00 0.00 75 1005.9
20260902160020 64 0.0 1.0 0.00 0.00 0.00 78 1006.0
20260902153020 62 0.0 1.0 0.00 0.00 0.00 84 1006.4
20260902150015 59 0.0 0.0 0.00 0.00 0.00 89 1006.7
20260902143016 58 0.0 0.0 0.00 0.00 0.00 91 1007.2
20260902140022 57 0.0 0.0 0.00 0.00 0.00 91 1007.2
20260902133022 57 0.0 0.0 0.00 0.00 0.00 90 1007.2
20260902130022 58 0.0 0.0 0.00 0.00 0.00 90 1007.5
20260902123017 58 0.0 0.0 0.00 0.00 0.00 91 1007.7
20260902120017 58 0.0 0.0 0.00 0.00 0.00 91 1007.8
20260902113017 58 0.0 0.0 0.00 0.00 0.00 91 1008.0
20260902110022 58 0.0 0.0 0.00 0.00 0.00 90 1008.2
20260902103017 58 0.0 0.0 0.00 0.00 0.00 89 1008.4
20260902100017 59 0.0 0.0 0.00 0.00 0.00 87 1008.6
20260902093017 60 0.0 1.0 0.00 0.00 0.00 85 1008.6
20260902090017 61 0.0 3.0 0.00 0.00 0.00 86 1009.0
20260902083016 60 0.0 0.0 0.00 0.00 0.00 88 1009.3
20260902080022 60 0.0 0.0 0.00 0.00 0.00 87 1009.4
20260902073016 61 0.0 0.0 0.00 0.00 0.00 86 1009.5
20260902070021 61 0.0 0.0 0.00 0.00 0.00 84 1009.6
20260902063020 60 0.0 0.0 0.00 0.00 0.00 83 1009.8
20260902060015 60 0.0 1.0 0.00 0.00 0.00 84 1009.7
20260902053017 61 0.0 1.0 0.00 0.00 0.00 84 1010.0
20260902050018 61 0.0 1.0 0.00 0.00 0.00 85 1009.9
20260902043017 62 0.0 1.0 0.00 0.00 0.00 84 1009.8
20260902040017 63 0.0 1.0 0.00 0.00 0.00 83 1009.8